Year,Month,Day,Hour,Minute,Value (Times are PST for temperature in C)
2017,03,10,00,00,4.30
2017,03,10,00,01,4.30
2017,03,10,00,02,4.30
2017,03,10,00,03,4.30
2017,03,10,00,04,4.30
2017,03,10,00,05,4.30
2017,03,10,00,06,4.30
2017,03,10,00,07,4.30
2017,03,10,00,08,4.30
2017,03,10,00,09,4.30
2017,03,10,00,10,4.30
2017,03,10,00,11,4.30
2017,03,10,00,12,4.30
2017,03,10,00,13,4.30
2017,03,10,00,14,4.40
2017,03,10,00,15,4.40
2017,03,10,00,16,4.40
2017,03,10,00,17,4.40
2017,03,10,00,18,4.40
2017,03,10,00,19,4.40
2017,03,10,00,20,4.40
2017,03,10,00,21,4.40
2017,03,10,00,22,4.40
2017,03,10,00,23,4.40
2017,03,10,00,24,4.40
2017,03,10,00,25,4.40
2017,03,10,00,26,4.40
2017,03,10,00,27,4.40
2017,03,10,00,28,4.40
2017,03,10,00,29,4.40
2017,03,10,00,30,4.40
2017,03,10,00,31,4.40
2017,03,10,00,32,4.40
2017,03,10,00,33,4.40
2017,03,10,00,34,4.40
2017,03,10,00,35,4.40
2017,03,10,00,36,4.40
2017,03,10,00,37,4.40
2017,03,10,00,38,4.40
2017,03,10,00,39,4.40
2017,03,10,00,40,4.40
2017,03,10,00,41,4.40
2017,03,10,00,42,4.40
2017,03,10,00,43,4.40
2017,03,10,00,44,4.40
2017,03,10,00,45,4.40
2017,03,10,00,46,4.40
2017,03,10,00,47,4.40
2017,03,10,00,48,4.40
2017,03,10,00,49,4.40
2017,03,10,00,50,4.40
2017,03,10,00,51,4.40
2017,03,10,00,52,4.40
2017,03,10,00,53,4.40
2017,03,10,00,54,4.40
2017,03,10,00,55,4.40
2017,03,10,00,56,4.40
2017,03,10,00,57,4.40
2017,03,10,00,58,4.40
2017,03,10,00,59,4.40
2017,03,10,01,00,4.40
2017,03,10,01,01,4.40
2017,03,10,01,02,4.40
2017,03,10,01,03,4.40
2017,03,10,01,04,4.40
2017,03,10,01,05,4.40
2017,03,10,01,06,4.30
2017,03,10,01,07,4.30
2017,03,10,01,08,4.30
2017,03,10,01,09,4.30
2017,03,10,01,10,4.30
2017,03,10,01,11,4.30
2017,03,10,01,12,4.30
2017,03,10,01,13,4.30
2017,03,10,01,14,4.30
2017,03,10,01,15,4.30
2017,03,10,01,16,4.30
2017,03,10,01,17,4.30
2017,03,10,01,18,4.30
2017,03,10,01,19,4.30
2017,03,10,01,20,4.30
2017,03,10,01,21,4.30
2017,03,10,01,22,4.30
2017,03,10,01,23,4.30
2017,03,10,01,24,4.30
2017,03,10,01,25,4.30
2017,03,10,01,26,4.30
2017,03,10,01,27,4.30
2017,03,10,01,28,4.30
2017,03,10,01,29,4.30
2017,03,10,01,30,4.40
2017,03,10,01,31,4.40
2017,03,10,01,32,4.40
2017,03,10,01,33,4.40
2017,03,10,01,34,4.40
2017,03,10,01,35,4.40
2017,03,10,01,36,4.40
2017,03,10,01,37,4.40
2017,03,10,01,38,4.40
2017,03,10,01,39,4.40
2017,03,10,01,40,4.40
2017,03,10,01,41,4.40
2017,03,10,01,42,4.40
2017,03,10,01,43,4.40
2017,03,10,01,44,4.40
2017,03,10,01,45,4.40
2017,03,10,01,46,4.50
2017,03,10,01,47,4.50
2017,03,10,01,48,4.50
2017,03,10,01,49,4.50
2017,03,10,01,50,4.50
2017,03,10,01,51,4.50
2017,03,10,01,52,4.50
2017,03,10,01,53,4.50
2017,03,10,01,54,4.50
2017,03,10,01,55,4.50
2017,03,10,01,56,4.50
2017,03,10,01,57,4.50
2017,03,10,01,58,4.50
2017,03,10,01,59,4.50
2017,03,10,02,00,4.50
2017,03,10,02,01,4.50
2017,03,10,02,02,4.50
2017,03,10,02,03,4.50
2017,03,10,02,04,4.50
2017,03,10,02,05,4.50
2017,03,10,02,06,4.50
2017,03,10,02,07,4.50
2017,03,10,02,08,4.50
2017,03,10,02,09,4.50
2017,03,10,02,10,4.50
2017,03,10,02,11,4.50
2017,03,10,02,12,4.50
2017,03,10,02,13,4.50
2017,03,10,02,14,4.50
2017,03,10,02,15,4.50
2017,03,10,02,16,4.50
2017,03,10,02,17,4.50
2017,03,10,02,18,4.50
2017,03,10,02,19,4.50
2017,03,10,02,20,4.50
2017,03,10,02,21,4.50
2017,03,10,02,22,4.50
2017,03,10,02,23,4.50
2017,03,10,02,24,4.50
2017,03,10,02,25,4.50
2017,03,10,02,26,4.50
2017,03,10,02,27,4.50
2017,03,10,02,28,4.50
2017,03,10,02,29,4.50
2017,03,10,02,30,4.50
2017,03,10,02,31,4.50
2017,03,10,02,32,4.50
2017,03,10,02,33,4.50
2017,03,10,02,34,4.50
2017,03,10,02,35,4.50
2017,03,10,02,36,4.50
2017,03,10,02,37,4.50
2017,03,10,02,38,4.50
2017,03,10,02,39,4.50
2017,03,10,02,40,4.60
2017,03,10,02,41,4.60
2017,03,10,02,42,4.60
2017,03,10,02,43,4.60
2017,03,10,02,44,4.60
2017,03,10,02,45,4.60
2017,03,10,02,46,4.70
2017,03,10,02,47,4.70
2017,03,10,02,48,4.60
2017,03,10,02,49,4.60
2017,03,10,02,50,4.60
2017,03,10,02,51,4.60
2017,03,10,02,52,4.70
2017,03,10,02,53,4.60
2017,03,10,02,54,4.60
2017,03,10,02,55,4.60
2017,03,10,02,56,4.70
2017,03,10,02,57,4.60
2017,03,10,02,58,4.60
2017,03,10,02,59,4.60
2017,03,10,03,00,4.70
2017,03,10,03,01,4.70
2017,03,10,03,02,4.70
2017,03,10,03,03,4.70
2017,03,10,03,04,4.70
2017,03,10,03,05,4.70
2017,03,10,03,06,4.80
2017,03,10,03,07,4.80
2017,03,10,03,08,4.80
2017,03,10,03,09,4.80
2017,03,10,03,10,4.80
2017,03,10,03,11,4.90
2017,03,10,03,12,4.90
2017,03,10,03,13,4.90
2017,03,10,03,14,4.90
2017,03,10,03,15,4.90
2017,03,10,03,16,4.90
2017,03,10,03,17,4.90
2017,03,10,03,18,4.90
2017,03,10,03,19,4.90
2017,03,10,03,20,4.90
2017,03,10,03,21,4.90
2017,03,10,03,22,5.00
2017,03,10,03,23,5.00
2017,03,10,03,24,5.00
2017,03,10,03,25,5.00
2017,03,10,03,26,5.00
2017,03,10,03,27,5.10
2017,03,10,03,28,5.10
2017,03,10,03,29,5.10
2017,03,10,03,30,5.10
2017,03,10,03,31,5.10
2017,03,10,03,32,5.00
2017,03,10,03,33,5.00
2017,03,10,03,34,5.00
2017,03,10,03,35,5.00
2017,03,10,03,36,5.00
2017,03,10,03,37,5.00
2017,03,10,03,38,5.00
2017,03,10,03,39,5.00
2017,03,10,03,40,5.10
2017,03,10,03,41,5.10
2017,03,10,03,42,5.10
2017,03,10,03,43,5.10
2017,03,10,03,44,5.10
2017,03,10,03,45,5.10
2017,03,10,03,46,5.10
2017,03,10,03,47,5.10
2017,03,10,03,48,5.10
2017,03,10,03,49,5.10
2017,03,10,03,50,5.10
2017,03,10,03,51,5.10
2017,03,10,03,52,5.10
2017,03,10,03,53,5.20
2017,03,10,03,54,5.20
2017,03,10,03,55,5.20
2017,03,10,03,56,5.20
2017,03,10,03,57,5.20
2017,03,10,03,58,5.20
2017,03,10,03,59,5.30
2017,03,10,04,00,5.30
2017,03,10,04,01,5.30
2017,03,10,04,02,5.40
2017,03,10,04,03,5.40
2017,03,10,04,04,5.40
2017,03,10,04,05,5.40
2017,03,10,04,06,5.40
2017,03,10,04,07,5.50
2017,03,10,04,08,5.50
2017,03,10,04,09,5.50
2017,03,10,04,10,5.50
2017,03,10,04,11,5.60
2017,03,10,04,12,5.60
2017,03,10,04,13,5.60
2017,03,10,04,14,5.60
2017,03,10,04,15,5.60
2017,03,10,04,16,5.60
2017,03,10,04,17,5.60
2017,03,10,04,18,5.60
2017,03,10,04,19,5.60
2017,03,10,04,20,5.60
2017,03,10,04,21,5.70
2017,03,10,04,22,5.70
2017,03,10,04,23,5.70
2017,03,10,04,24,5.70
2017,03,10,04,25,5.70
2017,03,10,04,26,5.80
2017,03,10,04,27,5.80
2017,03,10,04,28,5.80
2017,03,10,04,29,5.80
2017,03,10,04,30,5.80
2017,03,10,04,31,5.80
2017,03,10,04,32,5.80
2017,03,10,04,33,5.90
2017,03,10,04,34,5.90
2017,03,10,04,35,5.90
2017,03,10,04,36,5.90
2017,03,10,04,37,5.90
2017,03,10,04,38,5.90
2017,03,10,04,39,5.90
2017,03,10,04,40,5.90
2017,03,10,04,41,5.90
2017,03,10,04,42,5.90
2017,03,10,04,43,6.00
2017,03,10,04,44,6.00
2017,03,10,04,45,6.20
2017,03,10,04,46,6.30
2017,03,10,04,47,6.50
2017,03,10,04,48,6.60
2017,03,10,04,49,6.70
2017,03,10,04,50,6.80
2017,03,10,04,51,6.90
2017,03,10,04,52,6.90
2017,03,10,04,53,7.00
2017,03,10,04,54,7.00
2017,03,10,04,55,7.10
2017,03,10,04,56,7.20
2017,03,10,04,57,7.20
2017,03,10,04,58,7.30
2017,03,10,04,59,7.40
2017,03,10,05,00,7.50
2017,03,10,05,01,7.50
2017,03,10,05,02,7.60
2017,03,10,05,03,7.60
2017,03,10,05,04,7.70
2017,03,10,05,05,7.70
2017,03,10,05,06,7.70
2017,03,10,05,07,7.80
2017,03,10,05,08,7.80
2017,03,10,05,09,7.80
2017,03,10,05,10,7.80
2017,03,10,05,11,7.80
2017,03,10,05,12,7.90
2017,03,10,05,13,7.90
2017,03,10,05,14,7.90
2017,03,10,05,15,7.90
2017,03,10,05,16,7.90
2017,03,10,05,17,8.00
2017,03,10,05,18,8.00
2017,03,10,05,19,8.00
2017,03,10,05,20,8.00
2017,03,10,05,21,8.10
2017,03,10,05,22,8.10
2017,03,10,05,23,8.10
2017,03,10,05,24,8.10
2017,03,10,05,25,8.10
2017,03,10,05,26,8.20
2017,03,10,05,27,8.20
2017,03,10,05,28,8.30
2017,03,10,05,29,8.30
2017,03,10,05,30,8.40
2017,03,10,05,31,8.40
2017,03,10,05,32,8.50
2017,03,10,05,33,8.60
2017,03,10,05,34,8.70
2017,03,10,05,35,8.80
2017,03,10,05,36,8.80
2017,03,10,05,37,8.90
2017,03,10,05,38,9.00
2017,03,10,05,39,9.10
2017,03,10,05,40,9.20
2017,03,10,05,41,9.20
2017,03,10,05,42,9.20
2017,03,10,05,43,9.30
2017,03,10,05,44,9.30
2017,03,10,05,45,9.30
2017,03,10,05,46,9.40
2017,03,10,05,47,9.30
2017,03,10,05,48,9.30
2017,03,10,05,49,9.30
2017,03,10,05,50,9.30
2017,03,10,05,51,9.30
2017,03,10,05,52,9.30
2017,03,10,05,53,9.30
2017,03,10,05,54,9.40
2017,03,10,05,55,9.40
2017,03,10,05,56,9.40
2017,03,10,05,57,9.40
2017,03,10,05,58,9.50
2017,03,10,05,59,9.50
2017,03,10,06,00,9.50
2017,03,10,06,01,9.50
2017,03,10,06,02,9.60
2017,03,10,06,03,9.60
2017,03,10,06,04,9.60
2017,03,10,06,05,9.60
2017,03,10,06,06,9.60
2017,03,10,06,07,9.60
2017,03,10,06,08,9.70
2017,03,10,06,09,9.70
2017,03,10,06,10,9.80
2017,03,10,06,11,9.90
2017,03,10,06,12,10.00
2017,03,10,06,13,10.00
2017,03,10,06,14,10.00
2017,03,10,06,15,10.10
2017,03,10,06,16,10.10
2017,03,10,06,17,10.20
2017,03,10,06,18,10.30
2017,03,10,06,19,10.30
2017,03,10,06,20,10.30
2017,03,10,06,21,10.40
2017,03,10,06,22,10.40
2017,03,10,06,23,10.40
2017,03,10,06,24,10.40
2017,03,10,06,25,10.30
2017,03,10,06,26,10.30
2017,03,10,06,27,10.40
2017,03,10,06,28,10.30
2017,03,10,06,29,10.30
2017,03,10,06,30,10.30
2017,03,10,06,31,10.30
2017,03,10,06,32,10.30
2017,03,10,06,33,10.30
2017,03,10,06,34,10.20
2017,03,10,06,35,10.30
2017,03,10,06,36,10.40
2017,03,10,06,37,10.50
2017,03,10,06,38,10.50
2017,03,10,06,39,10.50
2017,03,10,06,40,10.60
2017,03,10,06,41,10.60
2017,03,10,06,42,10.60
2017,03,10,06,43,10.50
2017,03,10,06,44,10.50
2017,03,10,06,45,10.50
2017,03,10,06,46,10.40
2017,03,10,06,47,10.40
2017,03,10,06,48,10.30
2017,03,10,06,49,10.30
2017,03,10,06,50,10.40
2017,03,10,06,51,10.40
2017,03,10,06,52,10.40
2017,03,10,06,53,10.30
2017,03,10,06,54,10.30
2017,03,10,06,55,10.30
2017,03,10,06,56,10.30
2017,03,10,06,57,10.30
2017,03,10,06,58,10.30
2017,03,10,06,59,10.30
2017,03,10,07,00,10.30
2017,03,10,07,01,10.20
2017,03,10,07,02,10.20
2017,03,10,07,03,10.20
2017,03,10,07,04,10.20
2017,03,10,07,05,10.10
2017,03,10,07,06,10.10
2017,03,10,07,07,10.10
2017,03,10,07,08,10.10
2017,03,10,07,09,10.10
2017,03,10,07,10,10.10
2017,03,10,07,11,10.10
2017,03,10,07,12,10.10
2017,03,10,07,13,10.10
2017,03,10,07,14,10.10
2017,03,10,07,15,10.10
2017,03,10,07,16,10.10
2017,03,10,07,17,10.10
2017,03,10,07,18,10.20
2017,03,10,07,19,10.20
2017,03,10,07,20,10.20
2017,03,10,07,21,10.10
2017,03,10,07,22,10.10
2017,03,10,07,23,10.10
2017,03,10,07,24,10.10
2017,03,10,07,25,10.10
2017,03,10,07,26,10.20
2017,03,10,07,27,10.20
2017,03,10,07,28,10.10
2017,03,10,07,29,10.10
2017,03,10,07,30,10.10
2017,03,10,07,31,10.10
2017,03,10,07,32,10.10
2017,03,10,07,33,10.10
2017,03,10,07,34,10.10
2017,03,10,07,35,10.10
2017,03,10,07,36,10.00
2017,03,10,07,37,10.00
2017,03,10,07,38,9.90
2017,03,10,07,39,9.90
2017,03,10,07,40,9.90
2017,03,10,07,41,9.90
2017,03,10,07,42,9.90
2017,03,10,07,43,10.00
2017,03,10,07,44,10.00
2017,03,10,07,45,10.10
2017,03,10,07,46,10.10
2017,03,10,07,47,10.00
2017,03,10,07,48,10.00
2017,03,10,07,49,10.00
2017,03,10,07,50,10.00
2017,03,10,07,51,9.90
2017,03,10,07,52,9.80
2017,03,10,07,53,9.70
2017,03,10,07,54,9.70
2017,03,10,07,55,9.60
2017,03,10,07,56,9.60
2017,03,10,07,57,9.60
2017,03,10,07,58,9.60
2017,03,10,07,59,9.60
2017,03,10,08,00,9.60
2017,03,10,08,01,9.60
2017,03,10,08,02,9.60
2017,03,10,08,03,9.50
2017,03,10,08,04,9.50
2017,03,10,08,05,9.50
2017,03,10,08,06,9.50
2017,03,10,08,07,9.50
2017,03,10,08,08,9.50
2017,03,10,08,09,9.40
2017,03,10,08,10,9.40
2017,03,10,08,11,9.40
2017,03,10,08,12,9.40
2017,03,10,08,13,9.40
2017,03,10,08,14,9.40
2017,03,10,08,15,9.40
2017,03,10,08,16,9.50
2017,03,10,08,17,9.50
2017,03,10,08,18,9.40
2017,03,10,08,19,9.40
2017,03,10,08,20,9.40
2017,03,10,08,21,9.40
2017,03,10,08,22,9.40
2017,03,10,08,23,9.40
2017,03,10,08,24,9.40
2017,03,10,08,25,9.40
2017,03,10,08,26,9.50
2017,03,10,08,27,9.50
2017,03,10,08,28,9.40
2017,03,10,08,29,9.50
2017,03,10,08,30,9.50
2017,03,10,08,31,9.50
2017,03,10,08,32,9.60
2017,03,10,08,33,9.60
2017,03,10,08,34,9.60
2017,03,10,08,35,9.70
2017,03,10,08,36,9.70
2017,03,10,08,37,9.70
2017,03,10,08,38,9.70
2017,03,10,08,39,9.70
2017,03,10,08,40,9.70
2017,03,10,08,41,9.60
2017,03,10,08,42,9.60
2017,03,10,08,43,9.60
2017,03,10,08,44,9.50
2017,03,10,08,45,9.50
2017,03,10,08,46,9.50
2017,03,10,08,47,9.50
2017,03,10,08,48,9.50
2017,03,10,08,49,9.60
2017,03,10,08,50,9.60
2017,03,10,08,51,9.70
2017,03,10,08,52,9.60
2017,03,10,08,53,9.50
2017,03,10,08,54,9.50
2017,03,10,08,55,9.40
2017,03,10,08,56,9.40
2017,03,10,08,57,9.40
2017,03,10,08,58,9.40
2017,03,10,08,59,9.40
2017,03,10,09,00,9.40
2017,03,10,09,01,9.40
2017,03,10,09,02,9.50
2017,03,10,09,03,9.60
2017,03,10,09,04,9.70
2017,03,10,09,05,9.80
2017,03,10,09,06,9.80
2017,03,10,09,07,9.80
2017,03,10,09,08,9.80
2017,03,10,09,09,9.70
2017,03,10,09,10,9.70
2017,03,10,09,11,9.70
2017,03,10,09,12,9.60
2017,03,10,09,13,9.60
2017,03,10,09,14,9.50
2017,03,10,09,15,9.50
2017,03,10,09,16,9.50
2017,03,10,09,17,9.50
2017,03,10,09,18,9.50
2017,03,10,09,19,9.40
2017,03,10,09,20,9.50
2017,03,10,09,21,9.50
2017,03,10,09,22,9.50
2017,03,10,09,23,9.50
2017,03,10,09,24,9.60
2017,03,10,09,25,9.60
2017,03,10,09,26,9.70
2017,03,10,09,27,9.70
2017,03,10,09,28,9.70
2017,03,10,09,29,9.70
2017,03,10,09,30,9.70
2017,03,10,09,31,9.70
2017,03,10,09,32,9.70
2017,03,10,09,33,9.70
2017,03,10,09,34,9.70
2017,03,10,09,35,9.70
2017,03,10,09,36,9.70
2017,03,10,09,37,9.80
2017,03,10,09,38,9.80
2017,03,10,09,39,9.80
2017,03,10,09,40,9.80
2017,03,10,09,41,9.80
2017,03,10,09,42,9.80
2017,03,10,09,43,9.70
2017,03,10,09,44,9.70
2017,03,10,09,45,9.60
2017,03,10,09,46,9.60
2017,03,10,09,47,9.60
2017,03,10,09,48,9.60
2017,03,10,09,49,9.60
2017,03,10,09,50,9.60
2017,03,10,09,51,9.50
2017,03,10,09,52,9.40
2017,03,10,09,53,9.30
2017,03,10,09,54,9.30
2017,03,10,09,55,9.30
2017,03,10,09,56,9.30
2017,03,10,09,57,9.40
2017,03,10,09,58,9.40
2017,03,10,09,59,9.40
2017,03,10,10,00,9.40
2017,03,10,10,01,9.40
2017,03,10,10,02,9.40
2017,03,10,10,03,9.30
2017,03,10,10,04,9.30
2017,03,10,10,05,9.30
2017,03,10,10,06,9.30
2017,03,10,10,07,9.30
2017,03,10,10,08,9.30
2017,03,10,10,09,9.30
2017,03,10,10,10,9.30
2017,03,10,10,11,9.30
2017,03,10,10,12,9.30
2017,03,10,10,13,9.30
2017,03,10,10,14,9.30
2017,03,10,10,15,9.40
2017,03,10,10,16,9.40
2017,03,10,10,17,9.40
2017,03,10,10,18,9.40
2017,03,10,10,19,9.50
2017,03,10,10,20,9.50
2017,03,10,10,21,9.50
2017,03,10,10,22,9.50
2017,03,10,10,23,9.60
2017,03,10,10,24,9.60
2017,03,10,10,25,9.60
2017,03,10,10,26,9.60
2017,03,10,10,27,9.60
2017,03,10,10,28,9.60
2017,03,10,10,29,9.60
2017,03,10,10,30,9.60
2017,03,10,10,31,9.60
2017,03,10,10,32,9.50
2017,03,10,10,33,9.50
2017,03,10,10,34,9.40
2017,03,10,10,35,9.40
2017,03,10,10,36,9.40
2017,03,10,10,37,9.30
2017,03,10,10,38,9.30
2017,03,10,10,39,9.40
2017,03,10,10,40,9.40
2017,03,10,10,41,9.40
2017,03,10,10,42,9.40
2017,03,10,10,43,9.30
2017,03,10,10,44,9.30
2017,03,10,10,45,9.30
2017,03,10,10,46,9.30
2017,03,10,10,47,9.30
2017,03,10,10,48,9.40
2017,03,10,10,49,9.40
2017,03,10,10,50,9.40
2017,03,10,10,51,9.40
2017,03,10,10,52,9.40
2017,03,10,10,53,9.40
2017,03,10,10,54,9.40
2017,03,10,10,55,9.40
2017,03,10,10,56,9.50
2017,03,10,10,57,9.50
2017,03,10,10,58,9.60
2017,03,10,10,59,9.60
2017,03,10,11,00,9.60
2017,03,10,11,01,9.60
2017,03,10,11,02,9.50
2017,03,10,11,03,9.50
2017,03,10,11,04,9.50
2017,03,10,11,05,9.50
2017,03,10,11,06,9.60
2017,03,10,11,07,9.60
2017,03,10,11,08,9.60
2017,03,10,11,09,9.60
2017,03,10,11,10,9.70
2017,03,10,11,11,9.70
2017,03,10,11,12,9.70
2017,03,10,11,13,9.70
2017,03,10,11,14,9.80
2017,03,10,11,15,9.80
2017,03,10,11,16,9.80
2017,03,10,11,17,9.80
2017,03,10,11,18,9.80
2017,03,10,11,19,9.70
2017,03,10,11,20,9.70
2017,03,10,11,21,9.70
2017,03,10,11,22,9.80
2017,03,10,11,23,9.90
2017,03,10,11,24,10.00
2017,03,10,11,25,10.10
2017,03,10,11,26,10.20
2017,03,10,11,27,10.20
2017,03,10,11,28,10.20
2017,03,10,11,29,10.20
2017,03,10,11,30,10.30
2017,03,10,11,31,10.30
2017,03,10,11,32,10.30
2017,03,10,11,33,10.30
2017,03,10,11,34,10.20
2017,03,10,11,35,10.10
2017,03,10,11,36,10.10
2017,03,10,11,37,10.10
2017,03,10,11,38,10.00
2017,03,10,11,39,10.10
2017,03,10,11,40,10.10
2017,03,10,11,41,10.10
2017,03,10,11,42,10.10
2017,03,10,11,43,10.10
2017,03,10,11,44,10.20
2017,03,10,11,45,10.20
2017,03,10,11,46,10.20
2017,03,10,11,47,10.20
2017,03,10,11,48,10.20
2017,03,10,11,49,10.20
2017,03,10,11,50,10.10
2017,03,10,11,51,10.00
2017,03,10,11,52,10.00
2017,03,10,11,53,10.10
2017,03,10,11,54,10.20
2017,03,10,11,55,10.30
2017,03,10,11,56,10.30
2017,03,10,11,57,10.30
2017,03,10,11,58,10.40
2017,03,10,11,59,10.40
2017,03,10,12,00,10.40
2017,03,10,12,01,10.30
2017,03,10,12,02,10.20
2017,03,10,12,03,10.20
2017,03,10,12,04,10.20
2017,03,10,12,05,10.20
2017,03,10,12,06,10.20
2017,03,10,12,07,10.20
2017,03,10,12,08,10.10
2017,03,10,12,09,10.10
2017,03,10,12,10,10.10
2017,03,10,12,11,10.10
2017,03,10,12,12,10.10
2017,03,10,12,13,10.10
2017,03,10,12,14,10.10
2017,03,10,12,15,10.20
2017,03,10,12,16,10.20
2017,03,10,12,17,10.20
2017,03,10,12,18,10.30
2017,03,10,12,19,10.40
2017,03,10,12,20,10.30
2017,03,10,12,21,10.30
2017,03,10,12,22,10.20
2017,03,10,12,23,10.10
2017,03,10,12,24,10.10
2017,03,10,12,25,10.10
2017,03,10,12,26,10.10
2017,03,10,12,27,10.10
2017,03,10,12,28,10.20
2017,03,10,12,29,10.20
2017,03,10,12,30,10.40
2017,03,10,12,31,10.60
2017,03,10,12,32,10.80
2017,03,10,12,33,10.90
2017,03,10,12,34,10.90
2017,03,10,12,35,11.00
2017,03,10,12,36,11.00
2017,03,10,12,37,11.10
2017,03,10,12,38,11.00
2017,03,10,12,39,11.00
2017,03,10,12,40,11.10
2017,03,10,12,41,11.00
2017,03,10,12,42,11.00
2017,03,10,12,43,10.90
2017,03,10,12,44,10.90
2017,03,10,12,45,10.90
2017,03,10,12,46,10.90
2017,03,10,12,47,10.90
2017,03,10,12,48,10.90
2017,03,10,12,49,10.90
2017,03,10,12,50,11.00
2017,03,10,12,51,11.10
2017,03,10,12,52,11.10
2017,03,10,12,53,11.10
2017,03,10,12,54,11.10
2017,03,10,12,55,11.10
2017,03,10,12,56,11.10
2017,03,10,12,57,11.10
2017,03,10,12,58,11.10
2017,03,10,12,59,11.10
2017,03,10,13,00,11.10
2017,03,10,13,01,11.10
2017,03,10,13,02,11.10
2017,03,10,13,03,11.20
2017,03,10,13,04,11.30
2017,03,10,13,05,11.30
2017,03,10,13,06,11.40
2017,03,10,13,07,11.40
2017,03,10,13,08,11.30
2017,03,10,13,09,11.20
2017,03,10,13,10,11.10
2017,03,10,13,11,11.10
2017,03,10,13,12,11.10
2017,03,10,13,13,11.00
2017,03,10,13,14,11.00
2017,03,10,13,15,10.90
2017,03,10,13,16,10.90
2017,03,10,13,17,10.90
2017,03,10,13,18,10.90
2017,03,10,13,19,10.90
2017,03,10,13,20,11.00
2017,03,10,13,21,11.00
2017,03,10,13,22,10.90
2017,03,10,13,23,10.90
2017,03,10,13,24,11.00
2017,03,10,13,25,11.00
2017,03,10,13,26,11.10
2017,03,10,13,27,11.20
2017,03,10,13,28,11.20
2017,03,10,13,29,11.20
2017,03,10,13,30,11.20
2017,03,10,13,31,11.20
2017,03,10,13,32,11.20
2017,03,10,13,33,11.20
2017,03,10,13,34,11.20
2017,03,10,13,35,11.20
2017,03,10,13,36,11.20
2017,03,10,13,37,11.20
2017,03,10,13,38,11.20
2017,03,10,13,39,11.20
2017,03,10,13,40,11.20
2017,03,10,13,41,11.20
2017,03,10,13,42,11.20
2017,03,10,13,43,11.20
2017,03,10,13,44,11.20
2017,03,10,13,45,11.30
2017,03,10,13,46,11.20
2017,03,10,13,47,11.10
2017,03,10,13,48,11.10
2017,03,10,13,49,11.10
2017,03,10,13,50,11.10
2017,03,10,13,51,11.10
2017,03,10,13,52,11.00
2017,03,10,13,53,11.00
2017,03,10,13,54,11.00
2017,03,10,13,55,11.00
2017,03,10,13,56,10.90
2017,03,10,13,57,10.80
2017,03,10,13,58,10.80
2017,03,10,13,59,10.70
2017,03,10,14,00,10.80
2017,03,10,14,01,10.80
2017,03,10,14,02,10.80
2017,03,10,14,03,10.80
2017,03,10,14,04,10.70
2017,03,10,14,05,10.70
2017,03,10,14,06,10.70
2017,03,10,14,07,10.60
2017,03,10,14,08,10.70
2017,03,10,14,09,10.80
2017,03,10,14,10,10.80
2017,03,10,14,11,10.80
2017,03,10,14,12,10.80
2017,03,10,14,13,10.80
2017,03,10,14,14,10.80
2017,03,10,14,15,10.80
2017,03,10,14,16,10.90
2017,03,10,14,17,10.90
2017,03,10,14,18,10.90
2017,03,10,14,19,10.80
2017,03,10,14,20,10.80
2017,03,10,14,21,10.90
2017,03,10,14,22,10.90
2017,03,10,14,23,10.90
2017,03,10,14,24,10.80
2017,03,10,14,25,10.80
2017,03,10,14,26,10.80
2017,03,10,14,27,10.90
2017,03,10,14,28,10.90
2017,03,10,14,29,10.90
2017,03,10,14,30,10.90
2017,03,10,14,31,10.90
2017,03,10,14,32,10.80
2017,03,10,14,33,10.80
2017,03,10,14,34,10.80
2017,03,10,14,35,10.80
2017,03,10,14,36,10.80
2017,03,10,14,37,10.80
2017,03,10,14,38,10.80
2017,03,10,14,39,10.80
2017,03,10,14,40,10.80
2017,03,10,14,41,10.80
2017,03,10,14,42,10.80
2017,03,10,14,43,10.90
2017,03,10,14,44,11.00
2017,03,10,14,45,11.10
2017,03,10,14,46,11.10
2017,03,10,14,47,11.20
2017,03,10,14,48,11.20
2017,03,10,14,49,11.20
2017,03,10,14,50,11.30
2017,03,10,14,51,11.20
2017,03,10,14,52,11.10
2017,03,10,14,53,11.10
2017,03,10,14,54,11.10
2017,03,10,14,55,11.20
2017,03,10,14,56,11.20
2017,03,10,14,57,11.30
2017,03,10,14,58,11.30
2017,03,10,14,59,11.40
2017,03,10,15,00,11.40
2017,03,10,15,01,11.40
2017,03,10,15,02,11.40
2017,03,10,15,03,11.50
2017,03,10,15,04,11.40
2017,03,10,15,05,11.30
2017,03,10,15,06,11.30
2017,03,10,15,07,11.30
2017,03,10,15,08,11.30
2017,03,10,15,09,11.20
2017,03,10,15,10,11.10
2017,03,10,15,11,11.10
2017,03,10,15,12,11.00
2017,03,10,15,13,11.00
2017,03,10,15,14,11.00
2017,03,10,15,15,11.00
2017,03,10,15,16,11.10
2017,03,10,15,17,11.00
2017,03,10,15,18,10.90
2017,03,10,15,19,10.90
2017,03,10,15,20,11.00
2017,03,10,15,21,11.10
2017,03,10,15,22,11.20
2017,03,10,15,23,11.20
2017,03,10,15,24,11.20
2017,03,10,15,25,11.20
2017,03,10,15,26,11.20
2017,03,10,15,27,11.20
2017,03,10,15,28,11.20
2017,03,10,15,29,11.20
2017,03,10,15,30,11.20
2017,03,10,15,31,11.30
2017,03,10,15,32,11.30
2017,03,10,15,33,11.40
2017,03,10,15,34,11.50
2017,03,10,15,35,11.50
2017,03,10,15,36,11.50
2017,03,10,15,37,11.50
2017,03,10,15,38,11.50
2017,03,10,15,39,11.50
2017,03,10,15,40,11.40
2017,03,10,15,41,11.40
2017,03,10,15,42,11.50
2017,03,10,15,43,11.60
2017,03,10,15,44,11.60
2017,03,10,15,45,11.60
2017,03,10,15,46,11.60
2017,03,10,15,47,11.70
2017,03,10,15,48,11.80
2017,03,10,15,49,11.70
2017,03,10,15,50,11.70
2017,03,10,15,51,11.60
2017,03,10,15,52,11.60
2017,03,10,15,53,11.50
2017,03,10,15,54,11.50
2017,03,10,15,55,11.50
2017,03,10,15,56,11.60
2017,03,10,15,57,11.60
2017,03,10,15,58,11.60
2017,03,10,15,59,11.50
2017,03,10,16,00,11.40
2017,03,10,16,01,11.30
2017,03,10,16,02,11.30
2017,03,10,16,03,11.20
2017,03,10,16,04,11.10
2017,03,10,16,05,10.90
2017,03,10,16,06,10.80
2017,03,10,16,07,10.70
2017,03,10,16,08,10.60
2017,03,10,16,09,10.50
2017,03,10,16,10,10.40
2017,03,10,16,11,10.50
2017,03,10,16,12,10.50
2017,03,10,16,13,10.50
2017,03,10,16,14,10.50
2017,03,10,16,15,10.50
2017,03,10,16,16,10.50
2017,03,10,16,17,10.50
2017,03,10,16,18,10.40
2017,03,10,16,19,10.40
2017,03,10,16,20,10.40
2017,03,10,16,21,10.40
2017,03,10,16,22,10.30
2017,03,10,16,23,10.30
2017,03,10,16,24,10.40
2017,03,10,16,25,10.40
2017,03,10,16,26,10.40
2017,03,10,16,27,10.40
2017,03,10,16,28,10.50
2017,03,10,16,29,10.60
2017,03,10,16,30,10.60
2017,03,10,16,31,10.50
2017,03,10,16,32,10.50
2017,03,10,16,33,10.40
2017,03,10,16,34,10.30
2017,03,10,16,35,10.20
2017,03,10,16,36,10.20
2017,03,10,16,37,10.20
2017,03,10,16,38,10.20
2017,03,10,16,39,10.20
2017,03,10,16,40,10.30
2017,03,10,16,41,10.40
2017,03,10,16,42,10.50
2017,03,10,16,43,10.60
2017,03,10,16,44,10.80
2017,03,10,16,45,10.80
2017,03,10,16,46,10.90
2017,03,10,16,47,10.80
2017,03,10,16,48,10.80
2017,03,10,16,49,10.90
2017,03,10,16,50,10.90
2017,03,10,16,51,11.00
2017,03,10,16,52,11.00
2017,03,10,16,53,10.90
2017,03,10,16,54,10.80
2017,03,10,16,55,10.70
2017,03,10,16,56,10.70
2017,03,10,16,57,10.70
2017,03,10,16,58,10.60
2017,03,10,16,59,10.50
2017,03,10,17,00,10.50
2017,03,10,17,01,10.60
2017,03,10,17,02,10.50
2017,03,10,17,03,10.40
2017,03,10,17,04,10.40
2017,03,10,17,05,10.40
2017,03,10,17,06,10.30
2017,03,10,17,07,10.30
2017,03,10,17,08,10.30
2017,03,10,17,09,10.30
2017,03,10,17,10,10.30
2017,03,10,17,11,10.20
2017,03,10,17,12,10.20
2017,03,10,17,13,10.20
2017,03,10,17,14,10.20
2017,03,10,17,15,10.10
2017,03,10,17,16,10.10
2017,03,10,17,17,10.00
2017,03,10,17,18,10.00
2017,03,10,17,19,9.90
2017,03,10,17,20,9.90
2017,03,10,17,21,9.80
2017,03,10,17,22,9.90
2017,03,10,17,23,10.00
2017,03,10,17,24,10.10
2017,03,10,17,25,10.20
2017,03,10,17,26,10.20
2017,03,10,17,27,10.20
2017,03,10,17,28,10.40
2017,03,10,17,29,10.50
2017,03,10,17,30,10.60
2017,03,10,17,31,10.70
2017,03,10,17,32,10.70
2017,03,10,17,33,10.60
2017,03,10,17,34,10.50
2017,03,10,17,35,10.40
2017,03,10,17,36,10.30
2017,03,10,17,37,10.20
2017,03,10,17,38,10.10
2017,03,10,17,39,10.00
2017,03,10,17,40,9.90
2017,03,10,17,41,9.90
2017,03,10,17,42,9.80
2017,03,10,17,43,9.70
2017,03,10,17,44,9.70
2017,03,10,17,45,9.60